This is the latest recevied weather packets stored in our database for station/object K3JSE-2. If no packets are shown the sender has not sent any weather packets the latest 1 day(s).
| Time | Temp. | Humidity | Pressure | Rain* | Wind** | Luminosity | Snow |
|---|---|---|---|---|---|---|---|
| 1777993188 | 23.89° C | 44% | 1010.9 hPa | 0 mm | 0.45 m/s, 276° | - | - |
| 1777992898 | 23.89° C | 47% | 1010.9 hPa | 0 mm | 0.89 m/s, 244° | - | - |
| 1777992642 | 23.89° C | 44% | 1010.9 hPa | 0 mm | 0.45 m/s, 304° | - | - |
| 1777992604 | 23.89° C | 44% | 1010.9 hPa | 0 mm | 0 m/s | - | - |
| 1777992328 | 23.89° C | 43% | 1010.9 hPa | 0 mm | 0.89 m/s, 49° | - | - |
| 1777992068 | 23.89° C | 47% | 1010.9 hPa | 0 mm | 0 m/s | - | - |
| 1777991867 | 23.89° C | 47% | 1010.9 hPa | 0 mm | 0.89 m/s, 269° | - | - |
| 1777991801 | 23.33° C | 45% | 1010.8 hPa | 0 mm | 0 m/s | - | - |
| 1777991553 | 23.33° C | 46% | 1010.8 hPa | 0 mm | 0.89 m/s, 246° | - | - |
| 1777991283 | 23.33° C | 49% | 1010.8 hPa | 0 mm | 1.34 m/s, 280° | - | - |
| 1777991123 | 23.33° C | 45% | 1010.8 hPa | 0 mm | 0.89 m/s, 273° | - | - |
| 1777991017 | 22.78° C | 47% | 1010.8 hPa | 0 mm | 0.45 m/s, 261° | - | - |
| 1777990768 | 22.78° C | 50% | 1010.9 hPa | 0 mm | 0.89 m/s, 261° | - | - |
| 1777990484 | 22.78° C | 47% | 1011 hPa | 0 mm | 1.34 m/s, 244° | - | - |
| 1777990478 | 22.78° C | 47% | 1011 hPa | 0 mm | 0.89 m/s, 292° | - | - |
| 1777990184 | 22.22° C | 51% | 1011 hPa | 0 mm | 0.45 m/s, 255° | - | - |
| 1777989938 | 22.22° C | 48% | 1010.9 hPa | 0 mm | 1.34 m/s, 254° | - | - |
| 1777989754 | 21.67° C | 48% | 1011 hPa | 0 mm | 0.45 m/s, 195° | - | - |
| 1777989638 | 21.67° C | 49% | 1011.2 hPa | 0 mm | 1.79 m/s, 295° | - | - |
| 1777989388 | 21.67° C | 51% | 1011.2 hPa | 0 mm | 0.89 m/s, 275° | - | - |
| 1777989098 | 21.67° C | 48% | 1011.4 hPa | 0 mm | 1.79 m/s, 273° | - | - |
| 1777989040 | 21.67° C | 48% | 1011.3 hPa | 0 mm | 1.34 m/s, 80° | - | - |
| 1777988807 | 21.11° C | 54% | 1011.4 hPa | 0 mm | 0.89 m/s, 242° | - | - |
| 1777988518 | 21.11° C | 51% | 1011.5 hPa | 0 mm | 1.79 m/s, 288° | - | - |
| 1777988221 | 20.56° C | 53% | 1011.6 hPa | 0 mm | 1.34 m/s, 273° | - | - |
* Rain latest hour (hover to see other rain measurements)
** Current wind speed in m/s (hover to see current wind gust speed)